Year,Month,Day,Hour,Minute,Value (Times are PST for temperature in C)
2021,09,30,00,00,11.80
2021,09,30,00,01,11.80
2021,09,30,00,02,11.70
2021,09,30,00,03,11.70
2021,09,30,00,04,11.70
2021,09,30,00,05,11.80
2021,09,30,00,06,11.80
2021,09,30,00,07,11.80
2021,09,30,00,08,11.80
2021,09,30,00,09,11.80
2021,09,30,00,10,11.80
2021,09,30,00,11,11.80
2021,09,30,00,12,11.80
2021,09,30,00,13,11.80
2021,09,30,00,14,11.80
2021,09,30,00,15,11.80
2021,09,30,00,16,11.80
2021,09,30,00,17,11.80
2021,09,30,00,18,11.80
2021,09,30,00,19,11.90
2021,09,30,00,20,11.90
2021,09,30,00,21,11.90
2021,09,30,00,22,11.90
2021,09,30,00,23,11.90
2021,09,30,00,24,11.90
2021,09,30,00,25,11.90
2021,09,30,00,26,11.90
2021,09,30,00,27,11.90
2021,09,30,00,28,11.90
2021,09,30,00,29,11.90
2021,09,30,00,30,11.90
2021,09,30,00,31,11.90
2021,09,30,00,32,11.90
2021,09,30,00,33,11.90
2021,09,30,00,34,11.90
2021,09,30,00,35,11.90
2021,09,30,00,36,11.90
2021,09,30,00,37,11.90
2021,09,30,00,38,11.90
2021,09,30,00,39,11.90
2021,09,30,00,40,11.90
2021,09,30,00,41,11.90
2021,09,30,00,42,11.90
2021,09,30,00,43,11.90
2021,09,30,00,44,11.90
2021,09,30,00,45,11.90
2021,09,30,00,46,11.90
2021,09,30,00,47,12.00
2021,09,30,00,48,12.00
2021,09,30,00,49,12.00
2021,09,30,00,50,12.10
2021,09,30,00,51,12.10
2021,09,30,00,52,12.10
2021,09,30,00,53,12.10
2021,09,30,00,54,12.10
2021,09,30,00,55,12.10
2021,09,30,00,56,12.10
2021,09,30,00,57,12.10
2021,09,30,00,58,12.10
2021,09,30,00,59,12.20
2021,09,30,01,00,12.20
2021,09,30,01,01,12.20
2021,09,30,01,02,12.20
2021,09,30,01,03,12.20
2021,09,30,01,04,12.20
2021,09,30,01,05,12.20
2021,09,30,01,06,12.20
2021,09,30,01,07,12.20
2021,09,30,01,08,12.20
2021,09,30,01,09,12.20
2021,09,30,01,10,12.20
2021,09,30,01,11,12.20
2021,09,30,01,12,12.20
2021,09,30,01,13,12.20
2021,09,30,01,14,12.20
2021,09,30,01,15,12.20
2021,09,30,01,16,12.20
2021,09,30,01,17,12.20
2021,09,30,01,18,12.20
2021,09,30,01,19,12.20
2021,09,30,01,20,12.20
2021,09,30,01,21,12.20
2021,09,30,01,22,12.20
2021,09,30,01,23,12.20
2021,09,30,01,24,12.30
2021,09,30,01,25,12.30
2021,09,30,01,26,12.20
2021,09,30,01,27,12.20
2021,09,30,01,28,12.20
2021,09,30,01,29,12.20
2021,09,30,01,30,12.20
2021,09,30,01,31,12.20
2021,09,30,01,32,12.20
2021,09,30,01,33,12.30
2021,09,30,01,34,12.30
2021,09,30,01,35,12.30
2021,09,30,01,36,12.30
2021,09,30,01,37,12.20
2021,09,30,01,38,12.20
2021,09,30,01,39,12.20
2021,09,30,01,40,12.30
2021,09,30,01,41,12.30
2021,09,30,01,42,12.30
2021,09,30,01,43,12.30
2021,09,30,01,44,12.30
2021,09,30,01,45,12.30
2021,09,30,01,46,12.30
2021,09,30,01,47,12.30
2021,09,30,01,48,12.30
2021,09,30,01,49,12.30
2021,09,30,01,50,12.30
2021,09,30,01,51,12.30
2021,09,30,01,52,12.30
2021,09,30,01,53,12.20
2021,09,30,01,54,12.20
2021,09,30,01,55,12.20
2021,09,30,01,56,12.20
2021,09,30,01,57,12.20
2021,09,30,01,58,12.20
2021,09,30,01,59,12.20
2021,09,30,02,00,12.20
2021,09,30,02,01,12.20
2021,09,30,02,02,12.20
2021,09,30,02,03,12.20
2021,09,30,02,04,12.20
2021,09,30,02,05,12.20
2021,09,30,02,06,12.20
2021,09,30,02,07,12.20
2021,09,30,02,08,12.30
2021,09,30,02,09,12.30
2021,09,30,02,10,12.30
2021,09,30,02,11,12.40
2021,09,30,02,12,12.40
2021,09,30,02,13,12.50
2021,09,30,02,14,12.50
2021,09,30,02,15,12.60
2021,09,30,02,16,12.60
2021,09,30,02,17,12.60
2021,09,30,02,18,12.70
2021,09,30,02,19,12.70
2021,09,30,02,20,12.70
2021,09,30,02,21,12.80
2021,09,30,02,22,12.80
2021,09,30,02,23,12.80
2021,09,30,02,24,12.80
2021,09,30,02,25,12.80
2021,09,30,02,26,12.80
2021,09,30,02,27,12.80
2021,09,30,02,28,12.80
2021,09,30,02,29,12.80
2021,09,30,02,30,12.90
2021,09,30,02,31,12.90
2021,09,30,02,32,12.90
2021,09,30,02,33,12.90
2021,09,30,02,34,13.00
2021,09,30,02,35,13.00
2021,09,30,02,36,13.00
2021,09,30,02,37,13.10
2021,09,30,02,38,13.10
2021,09,30,02,39,13.20
2021,09,30,02,40,13.20
2021,09,30,02,41,13.20
2021,09,30,02,42,13.20
2021,09,30,02,43,13.30
2021,09,30,02,44,13.30
2021,09,30,02,45,13.30
2021,09,30,02,46,13.30
2021,09,30,02,47,13.30
2021,09,30,02,48,13.30
2021,09,30,02,49,13.30
2021,09,30,02,50,13.30
2021,09,30,02,51,13.30
2021,09,30,02,52,13.30
2021,09,30,02,53,13.40
2021,09,30,02,54,13.40
2021,09,30,02,55,13.40
2021,09,30,02,56,13.40
2021,09,30,02,57,13.40
2021,09,30,02,58,13.40
2021,09,30,02,59,13.40
2021,09,30,03,00,13.40
2021,09,30,03,01,13.40
2021,09,30,03,02,13.40
2021,09,30,03,03,13.40
2021,09,30,03,04,13.40
2021,09,30,03,05,13.40
2021,09,30,03,06,13.40
2021,09,30,03,07,13.40
2021,09,30,03,08,13.50
2021,09,30,03,09,13.50
2021,09,30,03,10,13.50
2021,09,30,03,11,13.40
2021,09,30,03,12,13.40
2021,09,30,03,13,13.40
2021,09,30,03,14,13.40
2021,09,30,03,15,13.40
2021,09,30,03,16,13.40
2021,09,30,03,17,13.50
2021,09,30,03,18,13.50
2021,09,30,03,19,13.50
2021,09,30,03,20,13.50
2021,09,30,03,21,13.50
2021,09,30,03,22,13.50
2021,09,30,03,23,13.50
2021,09,30,03,24,13.40
2021,09,30,03,25,13.40
2021,09,30,03,26,13.40
2021,09,30,03,27,13.40
2021,09,30,03,28,13.40
2021,09,30,03,29,13.50
2021,09,30,03,30,13.50
2021,09,30,03,31,13.60
2021,09,30,03,32,13.60
2021,09,30,03,33,13.70
2021,09,30,03,34,13.80
2021,09,30,03,35,13.80
2021,09,30,03,36,13.80
2021,09,30,03,37,13.80
2021,09,30,03,38,13.80
2021,09,30,03,39,13.80
2021,09,30,03,40,13.80
2021,09,30,03,41,13.80
2021,09,30,03,42,13.80
2021,09,30,03,43,13.80
2021,09,30,03,44,13.80
2021,09,30,03,45,13.80
2021,09,30,03,46,13.80
2021,09,30,03,47,13.80
2021,09,30,03,48,13.80
2021,09,30,03,49,13.70
2021,09,30,03,50,13.70
2021,09,30,03,51,13.70
2021,09,30,03,52,13.70
2021,09,30,03,53,13.60
2021,09,30,03,54,13.60
2021,09,30,03,55,13.60
2021,09,30,03,56,13.60
2021,09,30,03,57,13.70
2021,09,30,03,58,13.70
2021,09,30,03,59,13.60
2021,09,30,04,00,13.60
2021,09,30,04,01,13.60
2021,09,30,04,02,13.60
2021,09,30,04,03,13.60
2021,09,30,04,04,13.70
2021,09,30,04,05,13.70
2021,09,30,04,06,13.70
2021,09,30,04,07,13.70
2021,09,30,04,08,13.70
2021,09,30,04,09,13.70
2021,09,30,04,10,13.60
2021,09,30,04,11,13.60
2021,09,30,04,12,13.60
2021,09,30,04,13,13.50
2021,09,30,04,14,13.50
2021,09,30,04,15,13.40
2021,09,30,04,16,13.50
2021,09,30,04,17,13.50
2021,09,30,04,18,13.70
2021,09,30,04,19,13.70
2021,09,30,04,20,13.80
2021,09,30,04,21,13.80
2021,09,30,04,22,13.80
2021,09,30,04,23,13.80
2021,09,30,04,24,13.80
2021,09,30,04,25,13.80
2021,09,30,04,26,13.80
2021,09,30,04,27,13.80
2021,09,30,04,28,13.80
2021,09,30,04,29,13.80
2021,09,30,04,30,13.80
2021,09,30,04,31,13.90
2021,09,30,04,32,13.90
2021,09,30,04,33,14.00
2021,09,30,04,34,13.90
2021,09,30,04,35,13.90
2021,09,30,04,36,13.90
2021,09,30,04,37,13.90
2021,09,30,04,38,13.80
2021,09,30,04,39,13.80
2021,09,30,04,40,13.70
2021,09,30,04,41,13.70
2021,09,30,04,42,13.70
2021,09,30,04,43,13.70
2021,09,30,04,44,13.70
2021,09,30,04,45,13.70
2021,09,30,04,46,13.70
2021,09,30,04,47,13.70
2021,09,30,04,48,13.70
2021,09,30,04,49,13.80
2021,09,30,04,50,13.80
2021,09,30,04,51,13.80
2021,09,30,04,52,13.80
2021,09,30,04,53,13.80
2021,09,30,04,54,13.80
2021,09,30,04,55,13.80
2021,09,30,04,56,13.80
2021,09,30,04,57,13.80
2021,09,30,04,58,13.80
2021,09,30,04,59,13.80
2021,09,30,05,00,13.80
2021,09,30,05,01,13.90
2021,09,30,05,02,13.90
2021,09,30,05,03,13.90
2021,09,30,05,04,13.80
2021,09,30,05,05,13.80
2021,09,30,05,06,13.80
2021,09,30,05,07,13.80
2021,09,30,05,08,13.80
2021,09,30,05,09,13.80
2021,09,30,05,10,13.90
2021,09,30,05,11,14.00
2021,09,30,05,12,14.00
2021,09,30,05,13,14.00
2021,09,30,05,14,13.90
2021,09,30,05,15,13.90
2021,09,30,05,16,13.80
2021,09,30,05,17,13.70
2021,09,30,05,18,13.60
2021,09,30,05,19,13.60
2021,09,30,05,20,13.50
2021,09,30,05,21,13.50
2021,09,30,05,22,13.50
2021,09,30,05,23,13.50
2021,09,30,05,24,13.50
2021,09,30,05,25,13.40
2021,09,30,05,26,13.30
2021,09,30,05,27,13.30
2021,09,30,05,28,13.40
2021,09,30,05,29,13.50
2021,09,30,05,30,13.50
2021,09,30,05,31,13.40
2021,09,30,05,32,13.40
2021,09,30,05,33,13.30
2021,09,30,05,34,13.20
2021,09,30,05,35,13.20
2021,09,30,05,36,13.20
2021,09,30,05,37,13.10
2021,09,30,05,38,13.00
2021,09,30,05,39,12.90
2021,09,30,05,40,12.80
2021,09,30,05,41,12.70
2021,09,30,05,42,12.60
2021,09,30,05,43,12.70
2021,09,30,05,44,12.80
2021,09,30,05,45,13.00
2021,09,30,05,46,13.00
2021,09,30,05,47,12.90
2021,09,30,05,48,12.90
2021,09,30,05,49,12.80
2021,09,30,05,50,12.80
2021,09,30,05,51,12.80
2021,09,30,05,52,12.80
2021,09,30,05,53,12.80
2021,09,30,05,54,12.80
2021,09,30,05,55,12.80
2021,09,30,05,56,12.70
2021,09,30,05,57,12.70
2021,09,30,05,58,12.70
2021,09,30,05,59,12.80
2021,09,30,06,00,12.90
2021,09,30,06,01,13.00
2021,09,30,06,02,13.00
2021,09,30,06,03,13.00
2021,09,30,06,04,13.00
2021,09,30,06,05,13.20
2021,09,30,06,06,13.50
2021,09,30,06,07,13.60
2021,09,30,06,08,13.60
2021,09,30,06,09,13.60
2021,09,30,06,10,13.60
2021,09,30,06,11,13.60
2021,09,30,06,12,13.60
2021,09,30,06,13,13.50
2021,09,30,06,14,13.40
2021,09,30,06,15,13.40
2021,09,30,06,16,13.30
2021,09,30,06,17,13.30
2021,09,30,06,18,13.20
2021,09,30,06,19,13.10
2021,09,30,06,20,13.10
2021,09,30,06,21,13.10
2021,09,30,06,22,13.00
2021,09,30,06,23,13.00
2021,09,30,06,24,12.90
2021,09,30,06,25,12.90
2021,09,30,06,26,12.80
2021,09,30,06,27,12.80
2021,09,30,06,28,12.70
2021,09,30,06,29,12.60
2021,09,30,06,30,12.60
2021,09,30,06,31,12.60
2021,09,30,06,32,12.50
2021,09,30,06,33,12.40
2021,09,30,06,34,12.30
2021,09,30,06,35,12.20
2021,09,30,06,36,12.20
2021,09,30,06,37,12.20
2021,09,30,06,38,12.20
2021,09,30,06,39,12.20
2021,09,30,06,40,12.20
2021,09,30,06,41,12.10
2021,09,30,06,42,12.10
2021,09,30,06,43,12.10
2021,09,30,06,44,12.10
2021,09,30,06,45,12.10
2021,09,30,06,46,12.10
2021,09,30,06,47,12.10
2021,09,30,06,48,12.00
2021,09,30,06,49,12.00
2021,09,30,06,50,12.00
2021,09,30,06,51,11.90
2021,09,30,06,52,11.90
2021,09,30,06,53,11.90
2021,09,30,06,54,11.90
2021,09,30,06,55,11.90
2021,09,30,06,56,11.90
2021,09,30,06,57,11.90
2021,09,30,06,58,11.90
2021,09,30,06,59,11.90
2021,09,30,07,00,11.90
2021,09,30,07,01,11.90
2021,09,30,07,02,11.90
2021,09,30,07,03,12.00
2021,09,30,07,04,12.10
2021,09,30,07,05,12.10
2021,09,30,07,06,12.10
2021,09,30,07,07,12.10
2021,09,30,07,08,12.10
2021,09,30,07,09,12.00
2021,09,30,07,10,12.00
2021,09,30,07,11,12.00
2021,09,30,07,12,12.20
2021,09,30,07,13,12.40
2021,09,30,07,14,12.70
2021,09,30,07,15,12.80
2021,09,30,07,16,12.90
2021,09,30,07,17,13.00
2021,09,30,07,18,13.10
2021,09,30,07,19,13.10
2021,09,30,07,20,13.20
2021,09,30,07,21,13.20
2021,09,30,07,22,13.40
2021,09,30,07,23,13.60
2021,09,30,07,24,13.80
2021,09,30,07,25,14.00
2021,09,30,07,26,14.20
2021,09,30,07,27,14.40
2021,09,30,07,28,14.50
2021,09,30,07,29,14.50
2021,09,30,07,30,14.40
2021,09,30,07,31,14.40
2021,09,30,07,32,14.40
2021,09,30,07,33,14.30
2021,09,30,07,34,14.20
2021,09,30,07,35,14.20
2021,09,30,07,36,14.10
2021,09,30,07,37,14.00
2021,09,30,07,38,13.90
2021,09,30,07,39,13.80
2021,09,30,07,40,13.70
2021,09,30,07,41,13.60
2021,09,30,07,42,13.60
2021,09,30,07,43,13.50
2021,09,30,07,44,13.40
2021,09,30,07,45,13.30
2021,09,30,07,46,13.30
2021,09,30,07,47,13.20
2021,09,30,07,48,13.20
2021,09,30,07,49,13.20
2021,09,30,07,50,13.20
2021,09,30,07,51,13.10
2021,09,30,07,52,13.10
2021,09,30,07,53,13.10
2021,09,30,07,54,13.00
2021,09,30,07,55,13.00
2021,09,30,07,56,13.00
2021,09,30,07,57,12.90
2021,09,30,07,58,12.90
2021,09,30,07,59,12.80
2021,09,30,08,00,12.80
2021,09,30,08,01,12.80
2021,09,30,08,02,12.80
2021,09,30,08,03,12.80
2021,09,30,08,04,12.70
2021,09,30,08,05,12.70
2021,09,30,08,06,12.70
2021,09,30,08,07,12.60
2021,09,30,08,08,12.60
2021,09,30,08,09,12.60
2021,09,30,08,10,12.60
2021,09,30,08,11,12.50
2021,09,30,08,12,12.50
2021,09,30,08,13,12.50
2021,09,30,08,14,12.40
2021,09,30,08,15,12.40
2021,09,30,08,16,12.40
2021,09,30,08,17,12.40
2021,09,30,08,18,12.40
2021,09,30,08,19,12.40
2021,09,30,08,20,12.50
2021,09,30,08,21,12.50
2021,09,30,08,22,12.50
2021,09,30,08,23,12.60
2021,09,30,08,24,12.60
2021,09,30,08,25,12.70
2021,09,30,08,26,12.80
2021,09,30,08,27,12.80
2021,09,30,08,28,12.80
2021,09,30,08,29,12.90
2021,09,30,08,30,12.90
2021,09,30,08,31,12.90
2021,09,30,08,32,12.90
2021,09,30,08,33,12.90
2021,09,30,08,34,12.90
2021,09,30,08,35,12.90
2021,09,30,08,36,12.90
2021,09,30,08,37,12.90
2021,09,30,08,38,12.90
2021,09,30,08,39,12.90
2021,09,30,08,40,12.90
2021,09,30,08,41,12.80
2021,09,30,08,42,12.80
2021,09,30,08,43,12.80
2021,09,30,08,44,12.70
2021,09,30,08,45,12.70
2021,09,30,08,46,12.70
2021,09,30,08,47,12.70
2021,09,30,08,48,12.70
2021,09,30,08,49,12.70
2021,09,30,08,50,12.70
2021,09,30,08,51,12.80
2021,09,30,08,52,12.80
2021,09,30,08,53,12.80
2021,09,30,08,54,12.90
2021,09,30,08,55,13.00
2021,09,30,08,56,13.00
2021,09,30,08,57,13.10
2021,09,30,08,58,13.20
2021,09,30,08,59,13.30
2021,09,30,09,00,13.40
2021,09,30,09,01,13.40
2021,09,30,09,02,13.50
2021,09,30,09,03,13.60
2021,09,30,09,04,13.60
2021,09,30,09,05,13.70
2021,09,30,09,06,13.70
2021,09,30,09,07,13.70
2021,09,30,09,08,13.70
2021,09,30,09,09,13.80
2021,09,30,09,10,13.80
2021,09,30,09,11,13.80
2021,09,30,09,12,13.90
2021,09,30,09,13,13.90
2021,09,30,09,14,13.90
2021,09,30,09,15,13.90
2021,09,30,09,16,13.90
2021,09,30,09,17,13.90
2021,09,30,09,18,13.90
2021,09,30,09,19,13.90
2021,09,30,09,20,14.00
2021,09,30,09,21,14.00
2021,09,30,09,22,14.00
2021,09,30,09,23,14.10
2021,09,30,09,24,14.10
2021,09,30,09,25,14.10
2021,09,30,09,26,14.10
2021,09,30,09,27,14.10
2021,09,30,09,28,14.10
2021,09,30,09,29,14.10
2021,09,30,09,30,14.20
2021,09,30,09,31,14.20
2021,09,30,09,32,14.20
2021,09,30,09,33,14.30
2021,09,30,09,34,14.30
2021,09,30,09,35,14.30
2021,09,30,09,36,14.40
2021,09,30,09,37,14.40
2021,09,30,09,38,14.40
2021,09,30,09,39,14.50
2021,09,30,09,40,14.50
2021,09,30,09,41,14.50
2021,09,30,09,42,14.50
2021,09,30,09,43,14.50
2021,09,30,09,44,14.50
2021,09,30,09,45,14.40
2021,09,30,09,46,14.50
2021,09,30,09,47,14.50
2021,09,30,09,48,14.50
2021,09,30,09,49,14.50
2021,09,30,09,50,14.50
2021,09,30,09,51,14.40
2021,09,30,09,52,14.40
2021,09,30,09,53,14.40
2021,09,30,09,54,14.40
2021,09,30,09,55,14.40
2021,09,30,09,56,14.30
2021,09,30,09,57,14.30
2021,09,30,09,58,14.40
2021,09,30,09,59,14.40
2021,09,30,10,00,14.40
2021,09,30,10,01,14.50
2021,09,30,10,02,14.50
2021,09,30,10,03,14.60
2021,09,30,10,04,14.60
2021,09,30,10,05,14.60
2021,09,30,10,06,14.70
2021,09,30,10,07,14.70
2021,09,30,10,08,14.70
2021,09,30,10,09,14.80
2021,09,30,10,10,14.80
2021,09,30,10,11,14.90
2021,09,30,10,12,14.90
2021,09,30,10,13,15.00
2021,09,30,10,14,15.00
2021,09,30,10,15,15.00
2021,09,30,10,16,15.00
2021,09,30,10,17,15.10
2021,09,30,10,18,15.10
2021,09,30,10,19,15.10
2021,09,30,10,20,15.10
2021,09,30,10,21,15.20
2021,09,30,10,22,15.20
2021,09,30,10,23,15.20
2021,09,30,10,24,15.20
2021,09,30,10,25,15.20
2021,09,30,10,26,15.30
2021,09,30,10,27,15.30
2021,09,30,10,28,15.30
2021,09,30,10,29,15.20
2021,09,30,10,30,15.20
2021,09,30,10,31,15.20
2021,09,30,10,32,15.20
2021,09,30,10,33,15.20
2021,09,30,10,34,15.30
2021,09,30,10,35,15.30
2021,09,30,10,36,15.30
2021,09,30,10,37,15.30
2021,09,30,10,38,15.30
2021,09,30,10,39,15.30
2021,09,30,10,40,15.30
2021,09,30,10,41,15.30
2021,09,30,10,42,15.40
2021,09,30,10,43,15.40
2021,09,30,10,44,15.40
2021,09,30,10,45,15.40
2021,09,30,10,46,15.40
2021,09,30,10,47,15.40
2021,09,30,10,48,15.40
2021,09,30,10,49,15.40
2021,09,30,10,50,15.40
2021,09,30,10,51,15.40
2021,09,30,10,52,15.50
2021,09,30,10,53,15.40
2021,09,30,10,54,15.40
2021,09,30,10,55,15.40
2021,09,30,10,56,15.40
2021,09,30,10,57,15.30
2021,09,30,10,58,15.30
2021,09,30,10,59,15.30
2021,09,30,11,00,15.30
2021,09,30,11,01,15.20
2021,09,30,11,02,15.10
2021,09,30,11,03,15.10
2021,09,30,11,04,15.00
2021,09,30,11,05,15.00
2021,09,30,11,06,14.90
2021,09,30,11,07,14.90
2021,09,30,11,08,14.80
2021,09,30,11,09,14.80
2021,09,30,11,10,14.70
2021,09,30,11,11,14.70
2021,09,30,11,12,14.70
2021,09,30,11,13,14.70
2021,09,30,11,14,14.70
2021,09,30,11,15,14.60
2021,09,30,11,16,14.60
2021,09,30,11,17,14.60
2021,09,30,11,18,14.60
2021,09,30,11,19,14.50
2021,09,30,11,20,14.50
2021,09,30,11,21,14.50
2021,09,30,11,22,14.60
2021,09,30,11,23,14.60
2021,09,30,11,24,14.70
2021,09,30,11,25,14.80
2021,09,30,11,26,14.90
2021,09,30,11,27,15.00
2021,09,30,11,28,15.10
2021,09,30,11,29,15.20
2021,09,30,11,30,15.20
2021,09,30,11,31,15.30
2021,09,30,11,32,15.40
2021,09,30,11,33,15.50
2021,09,30,11,34,15.60
2021,09,30,11,35,15.70
2021,09,30,11,36,15.80
2021,09,30,11,37,15.90
2021,09,30,11,38,16.00
2021,09,30,11,39,16.10
2021,09,30,11,40,16.10
2021,09,30,11,41,16.10
2021,09,30,11,42,16.10
2021,09,30,11,43,16.10
2021,09,30,11,44,16.00
2021,09,30,11,45,16.00
2021,09,30,11,46,15.90
2021,09,30,11,47,15.80
2021,09,30,11,48,15.80
2021,09,30,11,49,15.80
2021,09,30,11,50,15.70
2021,09,30,11,51,15.70
2021,09,30,11,52,15.70
2021,09,30,11,53,15.70
2021,09,30,11,54,15.60
2021,09,30,11,55,15.60
2021,09,30,11,56,15.60
2021,09,30,11,57,15.60
2021,09,30,11,58,15.60
2021,09,30,11,59,15.60
2021,09,30,12,00,15.60
2021,09,30,12,01,15.60
2021,09,30,12,02,15.70
2021,09,30,12,03,15.70
2021,09,30,12,04,15.70
2021,09,30,12,05,15.70
2021,09,30,12,06,15.70
2021,09,30,12,07,15.70
2021,09,30,12,08,15.70
2021,09,30,12,09,15.70
2021,09,30,12,10,15.80
2021,09,30,12,11,15.70
2021,09,30,12,12,15.70
2021,09,30,12,13,15.70
2021,09,30,12,14,15.80
2021,09,30,12,15,15.80
2021,09,30,12,16,15.90
2021,09,30,12,17,16.00
2021,09,30,12,18,16.00
2021,09,30,12,19,16.10
2021,09,30,12,20,16.10
2021,09,30,12,21,16.10
2021,09,30,12,22,16.10
2021,09,30,12,23,16.10
2021,09,30,12,24,16.10
2021,09,30,12,25,16.10
2021,09,30,12,26,16.20
2021,09,30,12,27,16.10
2021,09,30,12,28,16.20
2021,09,30,12,29,16.20
2021,09,30,12,30,16.10
2021,09,30,12,31,16.20
2021,09,30,12,32,16.20
2021,09,30,12,33,16.20
2021,09,30,12,34,16.20
2021,09,30,12,35,16.20
2021,09,30,12,36,16.20
2021,09,30,12,37,16.20
2021,09,30,12,38,16.20
2021,09,30,12,39,16.20
2021,09,30,12,40,16.20
2021,09,30,12,41,16.20
2021,09,30,12,42,16.20
2021,09,30,12,43,16.20
2021,09,30,12,44,16.20
2021,09,30,12,45,16.20
2021,09,30,12,46,16.20
2021,09,30,12,47,16.10
2021,09,30,12,48,16.10
2021,09,30,12,49,16.10
2021,09,30,12,50,16.10
2021,09,30,12,51,16.00
2021,09,30,12,52,16.00
2021,09,30,12,53,16.00
2021,09,30,12,54,15.90
2021,09,30,12,55,15.90
2021,09,30,12,56,15.90
2021,09,30,12,57,15.80
2021,09,30,12,58,15.80
2021,09,30,12,59,15.80
2021,09,30,13,00,15.70
2021,09,30,13,01,15.70
2021,09,30,13,02,15.70
2021,09,30,13,03,15.70
2021,09,30,13,04,15.70
2021,09,30,13,05,15.60
2021,09,30,13,06,15.60
2021,09,30,13,07,15.50
2021,09,30,13,08,15.50
2021,09,30,13,09,15.50
2021,09,30,13,10,15.50
2021,09,30,13,11,15.50
2021,09,30,13,12,15.50
2021,09,30,13,13,15.50
2021,09,30,13,14,15.50
2021,09,30,13,15,15.50
2021,09,30,13,16,15.50
2021,09,30,13,17,15.50
2021,09,30,13,18,15.50
2021,09,30,13,19,15.50
2021,09,30,13,20,15.50
2021,09,30,13,21,15.50
2021,09,30,13,22,15.50
2021,09,30,13,23,15.50
2021,09,30,13,24,15.60
2021,09,30,13,25,15.60
2021,09,30,13,26,15.60
2021,09,30,13,27,15.60
2021,09,30,13,28,15.60
2021,09,30,13,29,15.60
2021,09,30,13,30,15.60
2021,09,30,13,31,15.60
2021,09,30,13,32,15.60
2021,09,30,13,33,15.70
2021,09,30,13,34,15.70
2021,09,30,13,35,15.70
2021,09,30,13,36,15.80
2021,09,30,13,37,15.90
2021,09,30,13,38,16.00
2021,09,30,13,39,16.10
2021,09,30,13,40,16.20
2021,09,30,13,41,16.30
2021,09,30,13,42,16.50
2021,09,30,13,43,16.70
2021,09,30,13,44,16.80
2021,09,30,13,45,16.90
2021,09,30,13,46,17.00
2021,09,30,13,47,17.00
2021,09,30,13,48,17.10
2021,09,30,13,49,17.10
2021,09,30,13,50,17.10
2021,09,30,13,51,17.20
2021,09,30,13,52,17.20
2021,09,30,13,53,17.20
2021,09,30,13,54,17.30
2021,09,30,13,55,17.30
2021,09,30,13,56,17.20
2021,09,30,13,57,17.20
2021,09,30,13,58,17.10
2021,09,30,13,59,17.00
2021,09,30,14,00,16.90
2021,09,30,14,01,16.90
2021,09,30,14,02,16.80
2021,09,30,14,03,16.80
2021,09,30,14,04,16.80
2021,09,30,14,05,16.80
2021,09,30,14,06,16.80
2021,09,30,14,07,16.70
2021,09,30,14,08,16.70
2021,09,30,14,09,16.70
2021,09,30,14,10,16.70
2021,09,30,14,11,16.60
2021,09,30,14,12,16.60
2021,09,30,14,13,16.60
2021,09,30,14,14,16.50
2021,09,30,14,15,16.50
2021,09,30,14,16,16.50
2021,09,30,14,17,16.40
2021,09,30,14,18,16.40
2021,09,30,14,19,16.40
2021,09,30,14,20,16.40
2021,09,30,14,21,16.40
2021,09,30,14,22,16.40
2021,09,30,14,23,16.30
2021,09,30,14,24,16.30
2021,09,30,14,25,16.30
2021,09,30,14,26,16.30
2021,09,30,14,27,16.30
2021,09,30,14,28,16.20
2021,09,30,14,29,16.20
2021,09,30,14,30,16.20
2021,09,30,14,31,16.20
2021,09,30,14,32,16.20
2021,09,30,14,33,16.20
2021,09,30,14,34,16.10
2021,09,30,14,35,16.10
2021,09,30,14,36,16.10
2021,09,30,14,37,16.00
2021,09,30,14,38,16.00
2021,09,30,14,39,15.90
2021,09,30,14,40,15.90
2021,09,30,14,41,15.80
2021,09,30,14,42,15.80
2021,09,30,14,43,15.90
2021,09,30,14,44,16.00
2021,09,30,14,45,16.10
2021,09,30,14,46,16.10
2021,09,30,14,47,16.20
2021,09,30,14,48,16.30
2021,09,30,14,49,16.30
2021,09,30,14,50,16.40
2021,09,30,14,51,16.40
2021,09,30,14,52,16.40
2021,09,30,14,53,16.50
2021,09,30,14,54,16.50
2021,09,30,14,55,16.50
2021,09,30,14,56,16.50
2021,09,30,14,57,16.50
2021,09,30,14,58,16.60
2021,09,30,14,59,16.60
2021,09,30,15,00,16.50
2021,09,30,15,01,16.60
2021,09,30,15,02,16.50
2021,09,30,15,03,16.50
2021,09,30,15,04,16.50
2021,09,30,15,05,16.50
2021,09,30,15,06,16.50
2021,09,30,15,07,16.50
2021,09,30,15,08,16.40
2021,09,30,15,09,16.40
2021,09,30,15,10,16.40
2021,09,30,15,11,16.40
2021,09,30,15,12,16.40
2021,09,30,15,13,16.50
2021,09,30,15,14,16.50
2021,09,30,15,15,16.50
2021,09,30,15,16,16.50
2021,09,30,15,17,16.50
2021,09,30,15,18,16.50
2021,09,30,15,19,16.50
2021,09,30,15,20,16.50
2021,09,30,15,21,16.60
2021,09,30,15,22,16.60
2021,09,30,15,23,16.60
2021,09,30,15,24,16.60
2021,09,30,15,25,16.60
2021,09,30,15,26,16.70
2021,09,30,15,27,16.70
2021,09,30,15,28,16.70
2021,09,30,15,29,16.70
2021,09,30,15,30,16.70
2021,09,30,15,31,16.70
2021,09,30,15,32,16.60
2021,09,30,15,33,16.60
2021,09,30,15,34,16.60
2021,09,30,15,35,16.60
2021,09,30,15,36,16.60
2021,09,30,15,37,16.60
2021,09,30,15,38,16.60
2021,09,30,15,39,16.60
2021,09,30,15,40,16.60
2021,09,30,15,41,16.60
2021,09,30,15,42,16.50
2021,09,30,15,43,16.50
2021,09,30,15,44,16.40
2021,09,30,15,45,16.40
2021,09,30,15,46,16.40
2021,09,30,15,47,16.30
2021,09,30,15,48,16.30
2021,09,30,15,49,16.30
2021,09,30,15,50,16.30
2021,09,30,15,51,16.30
2021,09,30,15,52,16.30
2021,09,30,15,53,16.30
2021,09,30,15,54,16.30
2021,09,30,15,55,16.20
2021,09,30,15,56,16.20
2021,09,30,15,57,16.20
2021,09,30,15,58,16.10
2021,09,30,15,59,16.10
2021,09,30,16,00,16.10
2021,09,30,16,01,16.10
2021,09,30,16,02,16.20
2021,09,30,16,03,16.20
2021,09,30,16,04,16.30
2021,09,30,16,05,16.40
2021,09,30,16,06,16.40
2021,09,30,16,07,16.40
2021,09,30,16,08,16.50
2021,09,30,16,09,16.50
2021,09,30,16,10,16.40
2021,09,30,16,11,16.40
2021,09,30,16,12,16.30
2021,09,30,16,13,16.20
2021,09,30,16,14,16.10
2021,09,30,16,15,16.00
2021,09,30,16,16,15.90
2021,09,30,16,17,15.90
2021,09,30,16,18,15.80
2021,09,30,16,19,15.80
2021,09,30,16,20,15.80
2021,09,30,16,21,15.70
2021,09,30,16,22,15.70
2021,09,30,16,23,15.70
2021,09,30,16,24,15.70
2021,09,30,16,25,15.60
2021,09,30,16,26,15.60
2021,09,30,16,27,15.60
2021,09,30,16,28,15.50
2021,09,30,16,29,15.50
2021,09,30,16,30,15.50
2021,09,30,16,31,15.40
2021,09,30,16,32,15.30
2021,09,30,16,33,15.30
2021,09,30,16,34,15.30
2021,09,30,16,35,15.20
2021,09,30,16,36,15.20
2021,09,30,16,37,15.10
2021,09,30,16,38,15.10
2021,09,30,16,39,15.10
2021,09,30,16,40,15.00
2021,09,30,16,41,15.00
2021,09,30,16,42,15.00
2021,09,30,16,43,15.00
2021,09,30,16,44,15.00
2021,09,30,16,45,15.00
2021,09,30,16,46,15.00
2021,09,30,16,47,15.00
2021,09,30,16,48,15.00
2021,09,30,16,49,15.00
2021,09,30,16,50,15.10
2021,09,30,16,51,15.10
2021,09,30,16,52,15.10
2021,09,30,16,53,15.10
2021,09,30,16,54,15.20
2021,09,30,16,55,15.20
2021,09,30,16,56,15.30
2021,09,30,16,57,15.30
2021,09,30,16,58,15.40
2021,09,30,16,59,15.40
2021,09,30,17,00,15.40
2021,09,30,17,01,15.40
2021,09,30,17,02,15.40
2021,09,30,17,03,15.40
2021,09,30,17,04,15.50
2021,09,30,17,05,15.50
2021,09,30,17,06,15.60
2021,09,30,17,07,15.60
2021,09,30,17,08,15.70
2021,09,30,17,09,15.70
2021,09,30,17,10,15.80
2021,09,30,17,11,15.80
2021,09,30,17,12,15.80
2021,09,30,17,13,15.80
2021,09,30,17,14,15.80
2021,09,30,17,15,15.80
2021,09,30,17,16,15.70
2021,09,30,17,17,15.70
2021,09,30,17,18,15.70
2021,09,30,17,19,15.70